Flag for Chile Weather past 2 weeks in Antofagasta, Chile

Now
59 °F

Partly sunny.


Feels Like: 57 °F
Forecast: N/A
Wind: 13 mph from South

Location: Antofagasta Airport

Current Time: Jun 30, 2015 at 7:21:07 PM

Latest Report: Jun 30, 2015 at 6:00 PM


Visibility: N/A

Pressure: 29.92 "Hg

Humidity: 77%

Dew point: 52 °F

Location of AntofagastaLocation

Historic Weather in Antofagasta — Graph

°F

Antofagasta temperature yesterday

Maximum temperature yesterday: 61 °F (at 12:00 PM)
Minimum temperature yesterday: 59 °F (at 12:00 AM)
Average temperature yesterday: 60 °F

Past Weeks' High & Low Weather Summary

 TemperatureHumidityPressure
High68 °F (Jun 21, 1:00 PM)88% (Jun 18, 2:00 AM)30.04 "Hg (Jun 18, 2:00 AM)
Low54 °F (Jun 30, 9:00 AM)52% (Jun 16, 12:00 PM)29.83 "Hg (Jun 18, 2:00 PM)
Average60 °F72%29.93 "Hg
* Reported Jun 15 6:00 PM — Jun 30 6:00 PM, Antofagasta, Weather by CustomWeather, © 2015

Note: Actual official high and low records may vary slightly from our data, if they occured in-between our weather recording intervals... More about our weather records

Advertising

Antofagasta weather history for previous 24 hours

 ConditionsComfort  
Time TempWeatherWind HumidityBarometerVisibility
6:00 PM
Tue, Jun 30
59 °FPartly sunny.13 mph77%29.92 "HgN/A
5:00 PM59 °FScattered clouds.13 mph77%29.92 "HgN/A
4:00 PM61 °FScattered clouds.13 mph72%29.92 "HgN/A
3:00 PM59 °FScattered clouds.14 mph72%29.95 "HgN/A
2:00 PM59 °FScattered clouds.10 mph77%29.95 "HgN/A
1:00 PM59 °FPartly sunny.13 mph77%29.98 "HgN/A
12:00 PM59 °FPartly sunny.12 mph77%29.98 "HgN/A
11:00 AM59 °FPartly sunny.13 mph77%29.98 "HgN/A
10:00 AM57 °FPartly sunny.13 mph72%29.95 "HgN/A
9:00 AM54 °FBroken clouds.5 mph77%29.95 "HgN/A
8:00 AM55 °FScattered clouds.9 mph77%29.92 "HgN/A
7:00 AM55 °FPassing clouds.12 mph77%29.92 "HgN/A
6:00 AM55 °FPassing clouds.10 mph82%29.92 "HgN/A
5:00 AM57 °FPassing clouds.12 mph77%29.95 "HgN/A
4:00 AM57 °FPassing clouds.9 mph77%29.95 "HgN/A
3:00 AM57 °FPassing clouds.9 mph77%29.98 "HgN/A
2:00 AM57 °FPassing clouds.5 mph72%30.01 "HgN/A
1:00 AM57 °FPassing clouds.6 mph77%29.98 "HgN/A
12:00 AM59 °FPassing clouds.8 mph72%29.98 "HgN/A
11:00 PM
Mon, Jun 29
59 °FPassing clouds.3 mph72%29.98 "HgN/A
10:00 PM59 °FPassing clouds.7 mph72%29.98 "HgN/A
9:00 PM59 °FPassing clouds.7 mph72%29.98 "HgN/A
8:00 PM59 °FPassing clouds.10 mph72%29.95 "HgN/A
7:00 PM61 °FPassing clouds.10 mph68%29.95 "HgN/A
Weather by CustomWeather, © 2015

See weather overviewHow to use our weather pages